Zurück zum Katalog

STARLINK-30582

AktivKommunikationVLEO
NORAD 58059·PAYLOAD·🇺🇸 United States

Gestartet Oct 13, 2023 von Cape Canaveral Space Force Station

Loading…

Nächste Überflüge (nächste 24 Stunden)

TLE

AktuellSource: CelesTrak SupGP

Epoche: Sep 14, 2026, 21:35 UTC

1 58059C 23158J   26257.89979167  .00040593  00000+0  14694-2 0  2577
2 58059  43.0046  38.1280 0002028 272.2304   9.5937 15.27575774    14

Verfolge STARLINK-30582 in Echtzeit mit AllMySat

Download on the App Store